Tracking 23581 objects as of 27-Jul-2021
HD Live streaming from Space Station
objects crossing your sky now

COSMOS 2491 DEB

Track COSMOS 2491 DEB now!
10-day predictions


NORAD ID: 44990
Int'l Code: 2013-076L
Perigee: 1,423.6 km
Apogee: 1,497.9 km
Inclination: 82.5 °
Period: 115.0 minutes
Semi major axis: 7831 km
RCS: Unknown
Launch date: December 25, 2013
Source: Commonwealth of Independent States (former USSR) (CIS)
Launch site: PLESETSK MISSILE AND SPACE COMPLEX (PKMTR)

Note: This is SATELLITE DEBRIS
aabbcc
Your satellite tracking list
Your tracking list is empty




NASA's NSSDC Master Catalog

Two Line Element Set (TLE):
1 44990U 13076L   20031.71457577 +.00000168 +00000-0 +10000-2 0  9990
2 44990 082.4940 180.2368 0047452 038.8026 321.6309 12.52599914003208
Source of the keplerian elements: AFSPC